• In Kazakhstan
  • List of Countries
  • For 7 days
  • Water Temperature
  • Satellite Maps
  • Weather Map
  • News
  • Weather Widgets
  • user-avatar
    Login

    Hourly Weather Rochdale

    Today, 21 July, Sunday

    Time Temperature Precipitation Wind Pressure Humidity
    00:00 +14°C° 0 mm 2 mps 745 mmHg 84%
    01:00 +13°C° 0 mm 2 mps 746 mmHg 85%
    02:00 +13°C° 0 mm 2 mps 746 mmHg 86%
    03:00 +13°C° 0 mm 1 mps 746 mmHg 87%
    04:00 +14°C° 0 mm 2 mps 746 mmHg 86%
    05:00 +14°C° 0 mm 2 mps 746 mmHg 86%
    06:00 +14°C° 0 mm 2 mps 746 mmHg 85%
    07:00 +16°C° 0 mm 2 mps 747 mmHg 80%
    08:00 +17°C° 0 mm 3 mps 747 mmHg 75%
    09:00 +18°C° 0 mm 4 mps 748 mmHg 70%
    10:00 +19°C° 0.1 mm 4 mps 748 mmHg 68%
    11:00 +20°C° 0.1 mm 4 mps 748 mmHg 65%
    12:00 +21°C° 0.1 mm 5 mps 748 mmHg 62%
    13:00 +21°C° 0 mm 5 mps 748 mmHg 61%
    14:00 +21°C° 0 mm 5 mps 748 mmHg 60%
    15:00 +22°C° 0 mm 5 mps 748 mmHg 60%
    16:00 +21°C° 0 mm 5 mps 748 mmHg 63%
    17:00 +21°C° 0 mm 5 mps 747 mmHg 67%
    18:00 +20°C° 0 mm 5 mps 747 mmHg 71%
    19:00 +19°C° 0.2 mm 5 mps 747 mmHg 74%
    20:00 +19°C° 0.2 mm 6 mps 747 mmHg 77%
    21:00 +17°C° 0.2 mm 6 mps 747 mmHg 80%
    22:00 +17°C° 0.2 mm 6 mps 746 mmHg 81%
    23:00 +17°C° 0.2 mm 6 mps 746 mmHg 81%

    Tomorrow, 22 July, Monday

    Time Temperature Precipitation Wind Pressure Humidity
    00:00 +17°C° 0.2 mm 6 mps 746 mmHg 82%
    01:00 +17°C° 0 mm 6 mps 746 mmHg 84%
    02:00 +17°C° 0 mm 6 mps 746 mmHg 86%
    03:00 +19°C° 0 mm 6 mps 746 mmHg 87%
    04:00 +19°C° 0 mm 6 mps 746 mmHg 86%
    05:00 +19°C° 0 mm 6 mps 746 mmHg 84%
    06:00 +19°C° 0 mm 6 mps 746 mmHg 83%
    07:00 +20°C° 0 mm 6 mps 747 mmHg 78%
    08:00 +21°C° 0 mm 6 mps 747 mmHg 74%
    09:00 +22°C° 0 mm 7 mps 748 mmHg 70%
    10:00 +23°C° 0 mm 7 mps 748 mmHg 66%
    11:00 +24°C° 0 mm 7 mps 748 mmHg 63%
    12:00 +26°C° 0 mm 7 mps 748 mmHg 60%
    13:00 +26°C° 0 mm 7 mps 748 mmHg 58%
    14:00 +26°C° 0 mm 7 mps 748 mmHg 56%
    15:00 +27°C° 0 mm 7 mps 748 mmHg 55%
    16:00 +26°C° 0 mm 6 mps 748 mmHg 57%
    17:00 +25°C° 0 mm 5 mps 748 mmHg 60%
    18:00 +25°C° 0 mm 5 mps 748 mmHg 62%
    19:00 +23°C° 0 mm 4 mps 749 mmHg 66%
    20:00 +21°C° 0 mm 4 mps 749 mmHg 70%
    21:00 +20°C° 0 mm 4 mps 750 mmHg 74%
    22:00 +19°C° 0 mm 3 mps 750 mmHg 78%
    23:00 +19°C° 0 mm 3 mps 749 mmHg 81%

    Day after tomorrow, 23 July, Tuesday

    Time Temperature Precipitation Wind Pressure Humidity
    00:00 +18°C° 0 mm 2 mps 749 mmHg 85%
    01:00 +18°C° 0 mm 2 mps 749 mmHg 86%
    02:00 +17°C° 0 mm 2 mps 749 mmHg 87%
    03:00 +17°C° 0 mm 2 mps 749 mmHg 88%
    04:00 +17°C° 0 mm 2 mps 749 mmHg 86%
    05:00 +19°C° 0 mm 1 mps 749 mmHg 84%
    06:00 +19°C° 0 mm 1 mps 749 mmHg 82%
    07:00 +20°C° 0 mm 2 mps 749 mmHg 76%
    08:00 +23°C° 0 mm 2 mps 749 mmHg 70%
    09:00 +24°C° 0 mm 2 mps 749 mmHg 65%
    10:00 +25°C° 0 mm 3 mps 749 mmHg 63%
    11:00 +27°C° 0 mm 3 mps 749 mmHg 61%
    12:00 +28°C° 0 mm 4 mps 748 mmHg 59%
    13:00 +28°C° 0 mm 4 mps 748 mmHg 57%
    14:00 +29°C° 0 mm 4 mps 748 mmHg 55%
    15:00 +29°C° 0 mm 4 mps 747 mmHg 52%
    16:00 +29°C° 0 mm 4 mps 747 mmHg 56%
    17:00 +28°C° 0 mm 4 mps 746 mmHg 60%
    18:00 +28°C° 0 mm 4 mps 746 mmHg 63%
    19:00 +27°C° 0 mm 4 mps 746 mmHg 67%
    20:00 +26°C° 0 mm 4 mps 746 mmHg 70%
    21:00 +23°C° 0 mm 4 mps 745 mmHg 73%
    22:00 +24°C° 0.2 mm 3 mps 745 mmHg 74%
    23:00 +22°C° 0.2 mm 3 mps 745 mmHg 75%

    24 July, Wednesday

    Time Temperature Precipitation Wind Pressure Humidity
    00:00 +22°C° 0.2 mm 3 mps 745 mmHg 77%
    01:00 +21°C° 0.7 mm 2 mps 744 mmHg 78%
    02:00 +20°C° 0.7 mm 2 mps 744 mmHg 80%
    03:00 +21°C° 0.7 mm 1 mps 743 mmHg 81%
    04:00 +21°C° 0.5 mm 1 mps 743 mmHg 81%
    05:00 +21°C° 0.5 mm 1 mps 743 mmHg 81%
    06:00 +21°C° 0.5 mm 1 mps 743 mmHg 82%
    07:00 +21°C° 0 mm 2 mps 743 mmHg 79%
    08:00 +23°C° 0 mm 2 mps 743 mmHg 75%
    09:00 +24°C° 0 mm 2 mps 743 mmHg 72%
    10:00 +25°C° 0 mm 2 mps 743 mmHg 69%
    11:00 +27°C° 0 mm 3 mps 743 mmHg 65%
    12:00 +28°C° 0 mm 3 mps 743 mmHg 62%
    13:00 +27°C° 0 mm 3 mps 743 mmHg 62%
    14:00 +27°C° 0 mm 3 mps 743 mmHg 63%
    15:00 +27°C° 0 mm 3 mps 743 mmHg 63%
    16:00 +26°C° 0 mm 3 mps 743 mmHg 66%
    17:00 +26°C° 0 mm 2 mps 743 mmHg 68%
    18:00 +25°C° 0 mm 2 mps 743 mmHg 71%
    19:00 +24°C° 0 mm 2 mps 743 mmHg 75%
    20:00 +23°C° 0 mm 1 mps 743 mmHg 78%
    21:00 +22°C° 0 mm 1 mps 743 mmHg 81%
    22:00 +22°C° 0 mm 1 mps 743 mmHg 82%
    23:00 +22°C° 0 mm 1 mps 743 mmHg 82%

    25 July, Thursday

    Time Temperature Precipitation Wind Pressure Humidity
    00:00 +22°C° 0 mm 1 mps 743 mmHg 82%
    01:00 +21°C° 0 mm 1 mps 742 mmHg 83%
    02:00 +21°C° 0 mm 1 mps 742 mmHg 83%
    03:00 +21°C° 0 mm 1 mps 742 mmHg 83%
    04:00 +21°C° 0 mm 2 mps 741 mmHg 83%
    05:00 +21°C° 0 mm 2 mps 741 mmHg 83%
    06:00 +21°C° 0 mm 2 mps 740 mmHg 83%
    07:00 +22°C° 0.4 mm 3 mps 740 mmHg 82%
    08:00 +24°C° 0.4 mm 3 mps 740 mmHg 80%
    09:00 +23°C° 0.4 mm 4 mps 739 mmHg 79%
    10:00 +23°C° 0.9 mm 4 mps 739 mmHg 79%
    11:00 +23°C° 0.9 mm 4 mps 739 mmHg 79%
    12:00 +22°C° 0.9 mm 4 mps 738 mmHg 79%
    13:00 +22°C° 1.1 mm 5 mps 738 mmHg 80%
    14:00 +22°C° 1.1 mm 5 mps 738 mmHg 81%
    15:00 +22°C° 1.1 mm 6 mps 737 mmHg 83%
    16:00 +22°C° 0.4 mm 6 mps 737 mmHg 83%
    17:00 +23°C° 0.4 mm 6 mps 737 mmHg 83%
    18:00 +23°C° 0.4 mm 6 mps 737 mmHg 83%
    19:00 +22°C° 0.2 mm 6 mps 737 mmHg 83%
    20:00 +21°C° 0.2 mm 5 mps 737 mmHg 82%
    21:00 +20°C° 0.2 mm 5 mps 737 mmHg 81%
    22:00 +17°C° 0 mm 5 mps 737 mmHg 82%
    23:00 +16°C° 0 mm 5 mps 736 mmHg 83%

    26 July, Friday

    Time Temperature Precipitation Wind Pressure Humidity
    00:00 +15°C° 0 mm 4 mps 736 mmHg 84%
    01:00 +15°C° 0 mm 4 mps 736 mmHg 85%
    02:00 +15°C° 0 mm 5 mps 736 mmHg 85%
    03:00 +15°C° 0 mm 5 mps 735 mmHg 85%
    04:00 +15°C° 0 mm 5 mps 735 mmHg 84%
    05:00 +15°C° 0 mm 5 mps 735 mmHg 84%
    06:00 +15°C° 0 mm 5 mps 735 mmHg 83%
    07:00 +16°C° 0.1 mm 6 mps 735 mmHg 82%
    08:00 +17°C° 0.1 mm 6 mps 736 mmHg 81%
    09:00 +17°C° 0.1 mm 6 mps 736 mmHg 79%
    10:00 +17°C° 0.4 mm 6 mps 736 mmHg 79%
    11:00 +19°C° 0.4 mm 6 mps 737 mmHg 78%
    12:00 +19°C° 0.4 mm 6 mps 737 mmHg 77%
    13:00 +17°C° 0.3 mm 6 mps 738 mmHg 79%
    14:00 +16°C° 0.3 mm 7 mps 738 mmHg 82%
    15:00 +15°C° 0.3 mm 7 mps 739 mmHg 84%
    16:00 +15°C° 0 mm 7 mps 740 mmHg 82%
    17:00 +15°C° 0 mm 6 mps 741 mmHg 79%
    18:00 +15°C° 0 mm 6 mps 741 mmHg 77%
    19:00 +15°C° 0 mm 5 mps 742 mmHg 78%
    20:00 +14°C° 0 mm 4 mps 742 mmHg 78%
    21:00 +13°C° 0 mm 3 mps 743 mmHg 79%
    22:00 +13°C° 0 mm 3 mps 743 mmHg 81%
    23:00 +13°C° 0 mm 3 mps 744 mmHg 83%
    Show more